Weather observations for the past three days for
Bermuda
| Date | Time (adt) | Wind (mph) | Vis. (mi.) | Weather | Sky Cond. | Temperature (ºF) | Relative Humidity | Wind Chill (°F) | Heat Index (°F) | Pressure | Precipitation (in) | ||||||
|---|---|---|---|---|---|---|---|---|---|---|---|---|---|---|---|---|---|
| Air | Dwpt | 6 hour | altimeter (in) | sea level (mb) | 1 hr | 3 hr | 6 hr | ||||||||||
| Max. | Min. | ||||||||||||||||
| 05 | 18:55 | W 18 | 0.00 | Mostly Cloudy | SCT023 BKN300 | 86 | 77 | 75% | 97 | 0 | 0.0 | ||||||
| 05 | 17:55 | W 20 | 0.00 | Partly Cloudy | FEW022 SCT300 | 86 | 77 | 75% | 97 | 0 | 0.0 | ||||||
| 05 | 16:55 | W 20 | 0.00 | Mostly Cloudy | SCT022 BKN300 | 87.8 | 77 | 70% | 100 | 0 | 0.0 | ||||||
| 05 | 13:55 | W 20 | 0.00 | Mostly Cloudy | SCT020 BKN038 BKN300 | 87.8 | 78.8 | 75% | 102 | 0 | 0.0 | ||||||
| 05 | 12:55 | W 16 | 0.00 | A Few Clouds | FEW025 FEW300 | 86 | 77 | 75% | 97 | 0 | 0.0 | ||||||
| 05 | 11:55 | N 6 | 0.00 | Showers in Vicinity | FEW023 SCT300 | 84.2 | 73.4 | 70% | 91 | 0 | 0.0 | ||||||
| 05 | 10:55 | W 14 | 0.00 | Showers in Vicinity | SCT022CB BKN066 BKN300 | 84.2 | 75.2 | 74% | 92 | 0 | 0.0 | ||||||
| 05 | 09:55 | W 17 | 0.00 | Showers in Vicinity | SCT023TCU BKN300 | 86 | 77 | 75% | 97 | 0 | 0.0 | ||||||
| 05 | 08:55 | W 14 | 0.00 | Showers in Vicinity | SCT017TCU BKN300 | 82.4 | 77 | 84% | 91 | 0 | 0.0 | ||||||
| 05 | 07:55 | W 17 | 0.00 | Showers in Vicinity | FEW022 BKN300 | 84.2 | 77 | 79% | 94 | 0 | 0.0 | ||||||
| 05 | 06:55 | W 18 | 0.00 | Mostly Cloudy | FEW023 BKN300 | 82.4 | 75.2 | 79% | 89 | 0 | 0.0 | ||||||
| 05 | 05:55 | W 20 | 0.00 | Showers in Vicinity | FEW020 BKN300 | 82.4 | 77 | 84% | 91 | 0 | 0.0 | ||||||
| 05 | 04:55 | W 17 | 0.00 | Showers in Vicinity | FEW018 SCT051 BKN300 | 82.4 | 77 | 84% | 91 | 0 | 0.0 | ||||||
| 05 | 03:55 | W 18 | 0.00 | Mostly Cloudy | FEW021 BKN300 | 84.2 | 75.2 | 74% | 92 | 0 | 0.0 | ||||||
| 05 | 02:55 | W 18 | 0.00 | Mostly Cloudy | SCT021 BKN300 | 84.2 | 77 | 79% | 94 | 0 | 0.0 | ||||||
| 05 | 01:55 | W 17 | 0.00 | Mostly Cloudy | FEW022 SCT052 BKN300 | 84.2 | 75.2 | 74% | 92 | 0 | 0.0 | ||||||
| 05 | 00:55 | W 18 | 0.00 | Showers in Vicinity | SCT021 BKN300 | 84.2 | 75.2 | 74% | 92 | 0 | 0.0 | ||||||
| 04 | 23:55 | W 16 | 0.00 | Mostly Cloudy | SCT021 BKN300 | 84.2 | 77 | 79% | 94 | 0 | 0.0 | ||||||
| 04 | 22:55 | W 17 | 0.00 | Mostly Cloudy | SCT022 BKN300 | 84.2 | 75.2 | 74% | 92 | 0 | 0.0 | ||||||
| 04 | 21:55 | W 17 | 0.00 | Mostly Cloudy | FEW020 BKN300 | 84.2 | 75.2 | 74% | 92 | 0 | 0.0 | ||||||
| 04 | 20:55 | W 16 | 0.00 | Mostly Cloudy | SCT021 BKN300 | 84.2 | 77 | 79% | 94 | 0 | 0.0 | ||||||
| 04 | 19:55 | W 16 | 0.00 | Showers in Vicinity | SCT021 BKN300 | 84.2 | 77 | 79% | 94 | 0 | 0.0 | ||||||
| 04 | 18:55 | W 17 | 0.00 | Mostly Cloudy | SCT022 BKN300 | 84.2 | 77 | 79% | 94 | 0 | 0.0 | ||||||
| 04 | 17:55 | W 16 | 0.00 | Mostly Cloudy | FEW023 BKN300 | 86 | 77 | 75% | 97 | 0 | 0.0 | ||||||
| 04 | 16:55 | W 20 | 0.00 | Mostly Cloudy | FEW022 BKN300 | 86 | 77 | 75% | 97 | 0 | 0.0 | ||||||
| 04 | 15:55 | W 16 | 0.00 | Mostly Cloudy | FEW020 BKN300 | 86 | 77 | 75% | 97 | 0 | 0.0 | ||||||
| 04 | 14:55 | W 17 | 0.00 | Mostly Cloudy | SCT021 BKN300 | 86 | 77 | 75% | 97 | 0 | 0.0 | ||||||
| 04 | 13:55 | W 16 | 0.00 | Mostly Cloudy | FEW022 FEW200 BKN300 | 86 | 77 | 75% | 97 | 0 | 0.0 | ||||||
| 04 | 12:55 | W 15 | 0.00 | Mostly Cloudy | FEW018 SCT230 BKN300 | 86 | 77 | 75% | 97 | 0 | 0.0 | ||||||
| 04 | 11:55 | W 16 | 0.00 | Mostly Cloudy | FEW019 BKN300 | 86 | 77 | 75% | 97 | 0 | 0.0 | ||||||
| 04 | 10:55 | W 16 | 0.00 | Mostly Cloudy | FEW019 BKN300 | 84.2 | 77 | 79% | 94 | 0 | 0.0 | ||||||
| 04 | 09:55 | W 17 | 0.00 | Showers in Vicinity | FEW019 FEW041 BKN300 | 84.2 | 77 | 79% | 94 | 0 | 0.0 | ||||||
| 04 | 08:55 | W 16 | 0.00 | Mostly Cloudy | FEW020 SCT034 BKN300 | 84.2 | 77 | 79% | 94 | 0 | 0.0 | ||||||
| 04 | 07:55 | W 14 | 0.00 | Partly Cloudy | FEW020 SCT300 | 82.4 | 75.2 | 79% | 89 | 0 | 0.0 | ||||||
| 04 | 06:55 | W 10 | 0.00 | Partly Cloudy | FEW022 SCT300 | 82.4 | 75.2 | 79% | 89 | 0 | 0.0 | ||||||
| 04 | 05:55 | W 10 | 0.00 | Mostly Cloudy | FEW022 FEW037 BKN300 | 82.4 | 75.2 | 79% | 89 | 0 | 0.0 | ||||||
| 04 | 04:55 | W 10 | 0.00 | Partly Cloudy | FEW022 FEW060 SCT300 | 82.4 | 73.4 | 74% | 88 | 0 | 0.0 | ||||||
| 04 | 03:55 | W 10 | 0.00 | Showers in Vicinity | SCT021TCU SCT060 BKN300 | 82.4 | 75.2 | 79% | 89 | 0 | 0.0 | ||||||
| 04 | 02:55 | W 7 | 0.00 | Mostly Cloudy | SCT021 SCT036 BKN300 | 82.4 | 75.2 | 79% | 89 | 0 | 0.0 | ||||||
| 04 | 01:55 | W 6 | 0.00 | Partly Cloudy | FEW023 FEW037 SCT300 | 82.4 | 75.2 | 79% | 89 | 0 | 0.0 | ||||||
| 04 | 00:55 | W 6 | 0.00 | Partly Cloudy | FEW024 SCT300 | 82.4 | 75.2 | 79% | 89 | 0 | 0.0 | ||||||
| 03 | 23:55 | NW 5 | 0.00 | Partly Cloudy | FEW024 FEW037 SCT300 | 82.4 | 73.4 | 74% | 88 | 0 | 0.0 | ||||||
| 03 | 22:55 | NW 3 | 0.00 | Mostly Cloudy | FEW024 BKN300 | 82.4 | 75.2 | 79% | 89 | 0 | 0.0 | ||||||
| 03 | 21:55 | NW 5 | 0.00 | Mostly Cloudy | FEW024 BKN300 | 82.4 | 73.4 | 74% | 88 | 0 | 0.0 | ||||||
| 03 | 20:55 | NW 6 | 0.00 | Mostly Cloudy | FEW024 BKN300 | 82.4 | 73.4 | 74% | 88 | 0 | 0.0 | ||||||
| 03 | 19:55 | NW 3 | 0.00 | Mostly Cloudy | FEW023 FEW100 BKN300 | 82.4 | 75.2 | 79% | 89 | 0 | 0.0 | ||||||
| 03 | 18:55 | NW 3 | 0.00 | A Few Clouds | FEW023 FEW100 | 84.2 | 75.2 | 74% | 92 | 0 | 0.0 | ||||||
| 03 | 17:55 | Vrbl 3 | 0.00 | A Few Clouds | FEW026 FEW110 | 84.2 | 75.2 | 74% | 92 | 0 | 0.0 | ||||||
| 03 | 16:55 | E 7 | 0.00 | Showers in Vicinity | FEW025 FEW081 BKN100 | 82.4 | 73.4 | 74% | 88 | 0 | 0.0 | ||||||
| 03 | 15:55 | NE 5 | 0.00 | Showers in Vicinity | FEW024TCU FEW044 SCT078 BKN110 | 82.4 | 75.2 | 79% | 89 | 0 | 0.0 | ||||||
| 03 | 14:55 | NW 5 | 0.00 | Showers in Vicinity | FEW023TCU SCT053 BKN300 | 86 | 77 | 75% | 97 | 0 | 0.0 | ||||||
| 03 | 13:55 | NW 8 | 0.00 | Showers in Vicinity | FEW025 SCT041 BKN300 | 86 | 75.2 | 70% | 95 | 0 | 0.0 | ||||||
| 03 | 12:55 | Vrbl 5 | 0.00 | Showers in Vicinity | FEW026 FEW040 BKN300 | 86 | 75.2 | 70% | 95 | 0 | 0.0 | ||||||
| 03 | 11:55 | NW 6 | 0.00 | Mostly Cloudy | FEW025 BKN300 | 86 | 75.2 | 70% | 95 | 0 | 0.0 | ||||||
| 03 | 10:55 | N 6 | 0.00 | Partly Cloudy | FEW024 SCT300 | 86 | 73.4 | 66% | 93 | 0 | 0.0 | ||||||
| 03 | 09:55 | N 5 | 0.00 | Partly Cloudy | FEW024 SCT300 | 86 | 75.2 | 70% | 95 | 0 | 0.0 | ||||||
| 03 | 08:55 | N 7 | 0.00 | Partly Cloudy | FEW025 SCT300 | 84.2 | 75.2 | 74% | 92 | 0 | 0.0 | ||||||
| 03 | 07:55 | N 6 | 0.00 | Mostly Cloudy | FEW022 BKN300 | 82.4 | 73.4 | 74% | 88 | 0 | 0.0 | ||||||
| 03 | 06:55 | N 5 | 0.00 | A Few Clouds | FEW020 FEW300 | 80.6 | 73.4 | 79% | 85 | 0 | 0.0 | ||||||
| 03 | 05:55 | N 3 | 0.00 | Partly Cloudy | FEW022 SCT300 | 80.6 | 73.4 | 79% | 85 | 0 | 0.0 | ||||||
| 03 | 04:55 | NE 2 | 0.00 | Mostly Cloudy | SCT021 BKN300 | 80.6 | 75.2 | 84% | 86 | 0 | 0.0 | ||||||
| 03 | 03:55 | N 3 | 0.00 | Partly Cloudy | SCT022 SCT300 | 80.6 | 75.2 | 84% | 86 | 0 | 0.0 | ||||||
| 03 | 02:55 | NE 3 | 0.00 | Partly Cloudy | SCT023 SCT300 | 80.6 | 75.2 | 84% | 86 | 0 | 0.0 | ||||||
| 03 | 01:55 | NE 3 | 0.00 | A Few Clouds | FEW023 FEW300 | 80.6 | 75.2 | 84% | 86 | 0 | 0.0 | ||||||
| 03 | 00:55 | NE 3 | 0.00 | Partly Cloudy | FEW021 SCT300 | 80.6 | 75.2 | 84% | 86 | 0 | 0.0 | ||||||
| 02 | 23:55 | N 6 | 0.00 | Partly Cloudy | FEW022 FEW057 SCT300 | 82.4 | 75.2 | 79% | 89 | 0 | 0.0 | ||||||
| 02 | 22:55 | N 6 | 0.00 | Partly Cloudy | FEW025 FEW060 SCT120 SCT300 | 82.4 | 73.4 | 74% | 88 | 0 | 0.0 | ||||||
| 02 | 21:55 | N 6 | 0.00 | Showers in Vicinity | FEW020TCU SCT057 SCT110 BKN300 | 80.6 | 75.2 | 84% | 86 | 0 | 0.0 | ||||||
| 02 | 20:55 | N 7 | 0.00 | Showers in Vicinity | SCT021TCU BKN040 BKN070 BKN300 | 82.4 | 75.2 | 79% | 89 | 0 | 0.0 | ||||||
| 02 | 19:55 | N 7 | 0.00 | Showers in Vicinity | SCT021TCU BKN057 BKN300 | 84.2 | 75.2 | 74% | 92 | 0 | 0.0 | ||||||
| Date | Time (adt) | Wind (mph) | Vis. (mi.) | Weather | Sky Cond. | Air | Dwpt | Max. | Min. | Relative Humidity | Wind Chill (°F) | Heat Index (°F) | altimeter (in) | sea level (mb) | 1 hr | 3 hr | 6 hr |
| 6 hour | |||||||||||||||||
| Temperature (ºF) | Pressure | Precipitation (in) | |||||||||||||||